Theta_e
316 318 319 318 319 319 319 318 319 319 319 318 318 318 318 318 318 319 318 314 314 317 318 319 319 319 319 317 314 310 309 310 311 309 309 308 307 306 306 306 305 304 303 302 301 301 301 301 301 301 301 302 302 302 304 306 306 307 307 308 307 307 307 308 307 307 306 305 304 302 301 300 299 299 301 301 301 302 302 302 302 302 302 302 303 303
315 318 319 320 320 319 319 319 318 318 318 318 318 318 318 318 318 319 317 314 313 316 318 319 319 318 319 318 315 310 310 311 310 310 309 308 307 306 306 306 305 304 303 302 301 301 301 301 301 301 301 301 302 302 303 304 305 306 306 307 307 306 306 306 305 305 304 303 301 300 298 297 296 297 298 298 299 299 300 300 300 300 300 300 300 300
317 318 319 319 319 317 317 318 317 317 318 318 318 318 318 319 320 319 317 314 313 315 318 318 318 318 318 318 314 310 311 311 310 310 309 308 307 306 306 305 304 304 303 302 301 301 301 301 301 301 301 300 301 301 302 303 304 305 305 306 307 307 307 307 306 306 303 301 301 299 297 296 295 295 295 294 295 296 297 296 296 297 297 296 296 297
319 319 319 319 318 317 317 316 316 317 317 318 318 318 318 319 321 319 317 315 313 314 316 317 317 318 319 317 314 311 311 310 308 307 307 307 307 306 305 305 304 304 303 302 301 301 301 301 301 301 300 300 300 300 301 301 302 303 304 305 305 306 307 308 308 307 304 302 300 298 296 295 294 293 292 292 291 292 291 291 291 291 291 291 291 291
320 318 317 317 317 317 317 316 316 317 317 318 319 318 319 320 320 320 318 316 315 315 315 316 318 319 319 320 315 310 308 307 306 305 305 305 306 305 304 304 304 304 303 302 301 301 301 301 301 300 300 300 300 300 300 300 301 301 302 303 303 303 303 304 304 303 302 300 298 296 294 294 293 292 292 291 291 290 289 288 288 288 288 288 288 288
319 317 316 317 317 317 318 317 317 318 318 319 320 319 318 319 319 320 320 318 319 321 317 316 322 322 319 322 319 310 307 307 306 305 305 305 305 304 304 303 303 303 303 302 301 301 301 301 300 300 299 299 299 298 299 299 300 300 301 301 301 300 300 299 299 299 298 297 296 296 295 294 294 293 292 292 291 291 290 289 288 288 288 288 288 288
318 315 315 318 318 318 319 318 318 318 318 320 321 320 318 319 320 320 321 320 322 324 318 316 322 324 319 320 318 312 310 309 306 306 306 305 304 304 304 304 303 302 301 301 301 301 301 301 300 300 299 298 297 297 297 298 299 300 300 300 300 299 298 298 297 297 297 297 296 295 295 294 293 292 292 292 291 291 290 289 289 288 288 288 288 288
317 315 317 319 319 319 319 319 319 318 319 322 321 320 320 320 320 321 321 321 322 322 318 315 319 322 320 319 316 312 312 311 308 307 307 306 305 304 304 304 303 302 301 301 300 300 300 300 299 299 297 296 296 296 296 297 298 299 299 299 299 298 297 297 296 296 296 295 294 293 293 293 292 292 292 291 291 291 290 290 289 288 288 288 288 288
318 317 318 319 318 320 320 320 320 318 320 320 317 318 319 319 320 320 320 321 320 321 321 319 318 320 321 319 315 313 313 313 311 308 307 306 305 305 304 304 303 302 301 301 300 300 299 298 298 297 296 295 295 295 296 296 297 298 298 298 297 296 296 295 295 295 294 293 293 292 292 292 292 292 292 291 291 291 290 290 290 289 288 288 288 288
317 314 316 318 319 320 318 317 318 319 319 317 315 317 317 318 318 319 320 320 319 320 322 321 319 321 323 319 316 314 314 316 314 310 308 307 305 305 305 304 303 302 301 301 300 299 299 297 296 295 295 294 294 294 294 295 295 296 296 296 296 295 295 294 294 294 293 292 291 291 291 291 292 292 292 291 291 291 291 290 290 289 289 288 287 287
313 310 312 317 318 317 315 312 313 316 317 316 316 318 318 317 317 317 317 318 320 322 322 321 319 320 322 320 318 318 316 316 316 312 309 307 306 305 305 304 302 301 300 300 299 299 297 296 295 294 294 294 293 293 293 293 294 294 294 294 295 294 293 293 293 293 292 291 291 291 291 291 292 292 292 292 292 291 291 291 290 290 289 288 288 287
314 313 314 315 314 314 314 313 311 312 314 316 318 318 319 319 317 317 318 317 322 325 321 318 319 321 322 321 318 318 316 315 316 312 309 308 306 305 305 304 302 301 300 299 299 298 297 295 294 294 294 293 293 293 293 293 293 293 293 293 293 293 292 292 292 292 291 291 290 290 291 292 292 292 292 292 292 291 291 291 290 290 289 289 288 287
318 317 317 315 312 313 317 317 313 312 313 317 318 318 322 323 321 322 322 320 323 323 315 314 317 321 321 319 318 317 314 314 315 313 310 308 307 306 305 304 302 301 300 299 298 297 296 296 295 294 294 293 293 293 293 292 292 292 292 292 292 291 291 291 291 290 290 290 290 290 291 291 291 291 291 291 292 291 291 291 290 290 289 289 288 287
321 320 317 316 313 313 316 319 317 315 314 316 319 319 323 326 325 326 325 323 324 320 312 312 316 319 319 317 318 316 313 311 312 311 311 308 307 306 305 304 302 301 300 299 298 297 297 296 295 295 294 293 293 292 292 292 291 291 291 291 291 290 290 290 290 289 289 289 289 289 290 290 290 290 291 291 291 290 290 290 289 289 288 288 287 287
325 324 319 318 317 314 316 319 320 318 315 316 318 320 322 325 326 326 325 324 324 317 311 312 316 319 319 316 314 311 308 307 308 309 310 308 307 306 304 303 302 300 300 299 298 298 297 296 295 294 294 293 293 292 291 291 291 291 290 290 290 290 289 289 289 289 289 289 289 289 289 290 290 290 290 290 289 289 289 288 288 288 288 287 286 286
326 326 320 317 316 315 316 318 319 319 317 317 317 319 321 322 322 321 319 318 318 316 314 314 316 317 316 313 309 307 306 306 306 307 308 308 307 305 304 302 302 300 299 299 298 297 297 296 295 294 294 293 292 291 291 290 290 290 290 289 289 289 289 288 288 288 289 289 289 289 289 289 289 289 289 289 288 288 288 287 287 287 287 287 286 286
325 324 318 315 314 313 314 316 317 319 319 318 317 319 319 318 318 319 317 314 314 319 320 316 316 316 315 314 309 307 307 306 305 306 307 308 307 305 304 303 302 301 300 299 298 297 297 296 295 294 293 293 292 291 290 290 290 289 289 289 288 288 288 288 288 288 288 289 289 289 289 289 289 288 288 288 288 287 287 287 287 287 287 287 287 286
324 322 316 314 316 312 310 313 315 315 317 317 318 318 316 316 317 317 320 319 318 322 322 318 318 318 318 317 312 309 309 308 306 306 306 307 306 305 305 303 302 301 300 299 298 298 297 295 294 294 293 292 291 291 290 289 289 289 289 288 288 288 288 288 288 288 288 288 289 289 289 288 288 288 288 288 287 287 287 287 287 287 287 287 286 286
322 323 317 313 316 312 308 313 315 313 313 314 316 317 317 319 319 318 320 322 322 324 323 320 319 318 318 318 314 312 312 310 307 306 306 306 306 306 305 304 302 301 300 299 298 297 297 295 294 294 293 292 291 290 289 289 289 289 289 289 288 288 288 288 288 288 288 288 288 288 288 288 288 287 287 287 287 287 287 287 287 287 287 286 286 285
319 324 320 312 312 313 310 313 317 315 312 311 313 315 316 318 319 319 320 320 322 324 324 322 320 318 318 318 316 315 314 311 309 306 306 306 306 306 305 304 303 302 301 300 298 297 297 295 294 294 293 292 291 290 289 289 289 289 289 288 288 288 288 288 288 288 288 288 288 288 288 287 287 287 287 287 287 287 287 287 287 286 286 286 285 285
318 321 322 314 310 313 313 314 317 317 315 312 313 316 316 316 316 317 319 319 319 321 323 324 323 320 317 316 317 317 315 313 310 308 307 306 305 306 306 305 304 302 301 300 298 298 297 296 294 293 292 291 291 290 289 288 288 289 289 289 288 288 288 288 288 288 288 288 288 287 287 287 287 287 287 287 287 287 287 287 286 286 285 285 284 284
319 320 321 316 312 314 316 315 314 316 315 315 315 316 317 317 316 318 320 319 317 318 321 322 323 321 315 313 314 315 315 314 312 309 308 307 306 306 306 305 304 303 302 301 299 298 297 296 294 293 292 292 291 290 289 289 288 289 288 289 288 288 288 288 288 288 287 287 287 287 287 287 287 287 287 287 287 287 287 286 286 285 285 284 284 283
318 318 320 318 315 316 315 312 311 312 313 315 315 316 317 317 317 320 322 320 317 317 318 317 320 320 313 310 310 310 311 312 312 311 310 308 307 306 306 306 305 304 302 300 299 298 297 296 295 293 292 292 291 290 290 289 289 288 288 288 288 288 288 288 287 287 287 287 287 287 286 287 287 287 287 287 287 287 286 286 285 285 284 284 283 283
316 316 319 320 317 315 313 311 311 310 311 314 315 315 316 317 318 318 319 318 317 318 318 317 320 319 312 308 308 307 307 308 309 311 311 310 308 306 306 306 305 304 302 300 299 298 297 296 295 293 293 292 291 290 290 289 289 289 288 288 288 288 288 287 287 287 287 287 286 286 286 286 286 287 286 287 287 287 286 286 285 285 284 283 283 283
318 318 319 321 321 319 317 315 314 312 311 313 314 315 315 317 318 318 315 315 318 320 319 319 322 320 313 308 307 306 306 306 307 308 310 310 309 308 306 306 305 304 302 300 299 298 297 296 295 294 293 292 291 290 290 289 289 289 288 288 288 288 288 287 287 287 286 286 286 286 286 286 286 286 286 287 287 286 286 285 285 284 284 283 283 282
318 319 319 322 324 325 323 321 319 316 313 312 314 315 316 316 317 317 316 317 319 321 320 320 321 319 313 309 309 308 307 307 307 306 307 309 309 308 306 305 305 304 302 300 299 298 297 296 295 294 293 292 291 290 290 289 289 289 289 288 288 288 288 287 287 287 286 286 286 286 285 285 286 286 286 287 287 286 285 285 285 284 284 283 283 282
316 317 319 321 324 324 323 321 319 317 315 314 315 316 316 316 317 317 317 319 319 319 320 320 320 319 315 311 310 310 309 309 309 307 305 306 308 307 306 305 305 303 302 300 299 298 297 296 296 294 293 292 291 290 290 289 289 289 289 288 288 288 288 287 287 286 286 286 286 285 285 285 286 286 286 287 287 286 285 285 284 284 283 283 283 282
315 317 318 320 322 322 319 317 316 317 317 317 317 316 315 316 318 318 318 319 319 319 319 320 320 321 318 312 312 312 310 310 310 309 307 306 306 306 306 305 304 303 302 300 299 298 297 296 296 295 293 292 291 290 290 290 289 289 289 288 288 287 288 287 287 286 286 286 286 285 285 285 285 286 287 287 286 286 285 285 284 284 283 283 283 283
316 317 318 319 319 319 318 315 315 316 316 316 317 316 315 315 316 317 317 317 318 319 319 320 321 321 318 313 312 312 311 311 310 310 308 306 305 305 304 304 303 302 301 300 299 298 298 297 296 295 294 292 291 291 290 290 289 289 289 288 288 287 287 287 286 286 286 286 286 285 285 285 286 286 287 287 286 285 285 284 284 284 284 283 283 283
316 317 319 320 319 318 319 317 315 316 315 315 316 316 316 315 315 315 315 315 317 318 318 318 320 319 317 314 313 313 313 312 311 308 306 305 305 304 303 303 302 302 301 300 300 299 298 297 296 295 294 293 291 291 290 290 289 289 288 288 288 287 287 286 286 286 286 286 286 285 285 286 286 286 287 286 286 285 285 284 284 284 283 283 283 282
314 317 319 319 318 319 319 317 316 317 317 317 317 317 316 316 315 315 315 314 315 316 315 316 318 317 315 314 314 314 313 312 310 309 306 305 305 303 303 303 302 301 301 300 300 299 298 297 297 296 294 293 292 291 290 290 290 289 288 288 287 287 287 286 286 286 286 286 286 285 285 286 286 286 287 286 286 285 285 284 284 284 283 283 282 282
313 315 315 316 319 320 318 316 316 315 315 317 317 317 316 315 315 315 314 314 314 315 315 316 317 315 313 314 314 313 312 312 312 310 308 306 305 303 303 302 302 301 301 300 300 299 299 298 297 296 295 294 293 291 291 290 290 289 288 288 288 287 287 286 286 286 286 286 286 285 285 286 286 286 286 286 286 285 285 285 284 283 283 282 282 282
312 314 314 316 320 319 314 314 314 313 316 318 318 318 317 315 314 314 313 313 313 313 315 315 315 314 313 313 313 312 313 314 312 311 309 308 305 303 303 303 302 301 301 301 300 300 299 298 297 296 295 294 293 292 291 291 290 289 289 288 288 287 287 286 286 286 286 286 286 285 286 286 286 286 286 286 286 285 285 284 284 283 282 282 282 281
311 313 314 315 318 315 310 311 314 316 319 317 313 314 316 316 316 315 314 313 312 312 313 313 314 314 314 313 312 312 312 312 311 310 309 308 306 304 303 302 302 302 301 300 300 299 299 298 297 296 296 295 294 292 292 291 290 290 289 288 288 287 286 286 286 286 286 286 286 286 286 286 286 286 286 286 285 285 285 284 283 283 282 282 282 281
311 313 314 315 315 311 309 312 316 318 318 311 304 305 309 313 315 316 315 314 313 312 312 312 312 313 312 312 311 310 309 308 306 306 306 306 306 305 303 302 302 301 301 300 300 299 298 298 297 296 295 295 294 293 292 291 291 290 289 289 288 287 286 286 286 286 286 286 286 286 286 286 286 286 286 286 285 285 284 284 283 282 282 282 281 280
311 312 313 314 312 309 310 314 317 317 313 306 301 300 303 308 311 314 315 314 313 312 312 311 311 311 311 310 307 305 304 302 301 302 302 302 304 304 303 303 302 301 301 301 300 299 299 298 297 296 296 295 294 293 292 291 291 290 290 289 288 287 287 286 286 286 286 286 286 287 286 286 286 286 286 285 285 285 284 284 283 282 281 281 280 280
310 312 312 313 312 310 311 313 314 314 313 309 305 302 304 308 310 312 314 313 311 311 311 311 311 311 310 307 302 299 299 300 301 302 300 299 301 302 302 302 301 301 300 300 299 299 298 298 297 296 296 295 294 293 292 291 291 290 290 289 288 287 287 286 286 286 286 286 287 287 286 286 287 287 286 285 285 285 285 284 282 281 281 281 280 280
307 310 312 313 313 312 312 313 313 314 315 312 308 304 303 306 307 308 311 311 309 309 311 311 311 311 309 304 298 297 300 302 305 305 302 299 299 299 299 298 298 298 298 297 297 296 296 296 296 295 295 294 293 292 292 291 290 290 289 289 288 287 286 286 286 286 286 287 287 287 286 287 287 287 286 285 285 285 284 283 282 281 281 281 280 280
304 307 309 312 314 313 312 314 314 314 314 310 305 299 298 301 305 307 309 310 309 308 310 311 311 310 308 302 298 299 303 306 307 306 303 300 298 297 297 296 295 295 295 295 295 294 294 294 294 294 293 293 292 291 291 290 290 290 289 288 288 287 286 286 287 287 287 287 287 287 287 287 287 287 286 286 285 285 284 283 281 280 281 280 280 279
305 306 308 312 314 313 312 313 313 313 312 306 300 296 295 298 303 309 310 309 305 302 303 308 308 306 304 301 298 301 305 307 307 302 298 297 297 295 295 295 294 293 293 292 292 293 292 292 292 292 292 291 291 291 290 290 290 289 289 288 287 287 287 288 288 288 287 287 287 287 287 287 287 286 286 285 285 284 283 282 280 280 280 280 279 278
305 306 308 310 312 312 313 313 312 312 310 303 298 296 296 298 304 309 309 304 299 296 298 303 305 304 302 299 299 302 303 301 299 295 293 294 295 294 293 293 293 292 292 291 291 291 291 291 291 292 291 291 292 291 291 290 289 289 289 288 287 287 289 290 289 288 287 287 286 286 286 287 287 286 285 285 284 283 282 281 279 279 279 278 278 278
307 307 307 309 310 311 313 312 312 313 308 300 297 295 296 302 307 306 302 298 296 296 297 300 302 302 301 300 300 301 298 294 293 293 292 293 293 292 291 291 291 290 290 290 290 290 290 290 290 291 292 292 293 293 292 291 289 289 288 287 287 290 291 290 289 288 287 286 286 286 286 286 286 285 284 283 283 282 281 280 279 278 277 277 277 277
307 307 307 308 309 310 311 311 314 313 304 297 297 297 298 303 305 300 296 295 295 296 297 298 298 298 299 299 299 298 295 292 293 293 292 292 292 291 290 290 290 290 289 288 289 289 289 290 290 290 291 292 292 293 292 291 290 288 287 287 290 292 292 290 289 288 286 286 285 285 285 285 285 284 283 282 282 281 280 279 278 277 276 276 276 275
307 308 307 308 309 309 311 311 310 306 300 298 300 301 301 302 300 297 297 296 294 294 295 296 296 296 297 298 298 295 293 293 293 292 291 292 291 290 290 290 290 290 289 288 289 289 289 289 289 289 289 290 291 292 291 291 290 288 287 289 291 292 290 289 288 286 285 285 284 284 284 284 283 282 282 281 281 280 279 277 276 275 275 275 274 274
306 305 305 306 308 308 307 305 302 299 297 298 299 300 302 301 298 297 298 298 296 295 295 295 296 295 294 295 295 294 293 292 292 291 292 292 291 290 290 290 290 290 289 289 289 289 290 291 290 289 289 289 290 290 290 290 290 288 288 291 292 290 289 288 286 285 285 284 284 283 283 282 281 281 280 280 279 279 278 276 275 274 274 274 274 274
299 298 299 302 304 304 302 299 297 297 297 297 296 296 298 298 295 294 296 297 296 295 294 294 296 295 293 293 293 293 293 292 291 291 291 291 290 290 290 290 289 289 289 289 289 290 290 290 290 289 289 288 289 290 290 290 289 289 290 291 291 289 288 287 286 285 284 284 283 282 282 281 280 279 278 278 278 277 276 275 274 273 273 273 273 273
295 295 298 300 303 304 302 297 295 295 296 296 296 295 294 294 293 292 293 295 295 294 293 293 294 293 292 292 292 292 292 292 291 291 291 290 291 290 290 290 289 289 288 289 290 290 289 288 288 288 288 288 289 289 290 289 289 290 290 290 289 288 287 286 285 284 283 282 281 280 280 279 278 277 277 276 276 276 275 275 274 273 272 273 273 273
297 296 297 299 301 301 298 294 292 292 292 293 295 295 295 295 293 291 292 292 291 291 291 291 291 291 291 292 292 292 292 292 291 291 291 290 291 291 290 290 290 289 289 289 289 289 288 287 287 287 287 288 289 290 289 289 289 290 289 288 287 286 286 285 284 283 282 281 280 279 278 277 276 276 275 275 275 275 274 274 274 273 273 274 274 273
297 297 297 298 298 297 294 291 291 292 293 293 293 293 294 295 294 293 292 291 290 290 290 290 290 290 290 291 291 291 292 292 291 291 291 291 291 291 290 290 290 290 290 289 288 288 288 288 288 288 288 289 290 290 289 289 290 289 288 287 286 285 284 283 283 282 280 279 278 277 276 275 274 274 274 274 274 274 274 274 274 274 274 274 274 273
296 298 297 296 297 298 296 293 293 295 296 295 294 294 294 294 293 293 292 292 291 291 291 291 291 290 289 290 290 291 292 292 291 291 291 291 291 291 290 290 290 290 290 289 289 288 288 288 288 288 288 289 290 289 289 289 290 289 288 286 285 284 283 282 281 280 279 278 277 276 275 274 273 273 273 272 273 273 273 274 274 274 273 273 273 273
297 298 297 297 298 298 296 295 294 296 297 296 296 296 294 293 293 292 292 293 293 292 291 292 292 291 290 289 289 290 291 291 291 291 291 291 290 290 290 290 290 290 289 289 288 287 287 287 287 286 287 288 289 288 288 288 288 288 286 285 284 283 281 281 280 279 278 277 276 275 274 273 272 272 272 271 272 272 272 272 273 273 273 273 272 272
Wind_Speed
3 5 6 8 9 9 11 14 13 9 5 5 6 7 8 8 9 6 2 5 2 4 8 11 12 14 13 9 10 10 8 8 8 7 6 5 4 4 4 3 3 3 3 4 3 4 4 4 5 5 5 5 6 7 7 9 12 11 12 14 15 12 11 11 12 12 14 16 17 17 18 20 22 24 26 27 26 25 25 24 24 24 23 22 21 21
3 7 10 12 11 7 7 12 12 7 5 7 7 7 8 8 9 6 3 5 3 3 8 11 13 13 15 11 9 11 9 9 9 9 8 7 5 4 4 5 4 3 4 4 4 4 4 4 4 4 5 6 6 7 8 9 10 10 11 12 13 13 13 13 12 13 15 15 15 16 17 18 20 24 27 28 28 27 27 26 26 26 25 25 24 23
6 9 13 12 6 1 1 4 7 8 8 8 6 7 8 6 8 6 4 5 3 3 6 9 11 11 14 11 9 11 10 8 7 6 5 6 7 5 5 5 5 5 5 5 5 4 4 5 4 5 5 6 6 7 8 9 9 10 12 13 13 13 15 16 16 18 20 21 22 23 23 25 26 27 29 30 30 30 30 30 30 29 28 28 28 27
7 7 11 10 4 4 4 4 6 7 7 8 6 6 7 6 6 6 3 4 4 4 6 7 8 10 12 8 9 9 7 6 5 4 4 4 5 6 6 5 6 7 6 6 6 6 6 5 5 5 5 6 6 7 8 8 9 10 11 13 14 15 16 18 19 21 24 25 28 29 30 30 30 29 29 30 30 31 32 32 32 32 31 30 30 30
10 2 2 7 7 7 8 6 8 7 6 8 9 8 8 8 7 7 2 0 4 7 6 6 8 9 12 13 9 6 4 5 5 6 6 6 5 5 5 5 6 6 7 7 7 7 7 6 6 6 5 6 6 7 9 10 9 9 12 14 15 17 19 21 23 25 27 29 29 28 26 24 23 21 21 23 24 26 29 31 31 31 31 30 30 30
11 2 4 7 7 8 9 7 9 8 7 8 10 12 12 11 10 10 6 3 6 7 5 4 8 6 5 11 9 7 5 7 7 9 9 10 8 7 7 7 6 6 6 7 7 7 7 7 7 6 6 6 7 8 10 12 11 11 13 15 17 19 21 21 21 21 21 22 19 17 16 15 15 16 16 16 17 19 23 27 29 29 29 29 29 28
4 4 4 7 6 8 8 8 9 9 8 7 4 7 10 11 10 10 8 3 5 6 2 4 7 5 3 5 6 7 7 8 8 9 10 10 9 9 9 8 8 7 6 6 7 8 7 7 7 7 6 6 6 7 10 12 13 14 15 17 18 19 19 18 17 13 12 13 13 15 15 15 15 17 15 15 16 17 19 24 27 28 28 27 27 26
5 7 5 6 7 8 8 8 9 9 8 5 2 1 4 7 8 9 8 6 6 6 2 6 6 7 7 4 6 6 7 8 8 9 9 9 9 10 9 9 9 8 8 7 7 8 8 7 7 6 6 5 6 7 10 13 14 15 16 17 18 18 17 17 16 14 14 17 21 22 21 18 17 18 17 15 16 17 19 21 24 26 26 26 25 25
4 8 9 10 9 8 7 5 6 11 8 2 3 2 1 2 5 6 6 6 6 6 5 7 6 5 8 4 6 7 7 8 10 11 11 11 11 11 10 10 10 9 8 8 7 8 8 7 6 6 6 5 6 8 11 13 14 15 16 17 17 17 17 17 18 19 21 24 25 25 24 22 19 18 17 16 16 17 18 19 19 20 22 24 24 24
2 2 4 8 9 7 4 3 2 7 6 2 5 4 4 2 1 3 5 5 5 7 8 8 8 6 8 4 6 5 5 8 9 10 12 12 12 12 11 11 11 9 8 7 8 9 8 7 6 6 6 6 8 10 12 13 14 15 15 16 17 18 18 19 21 23 25 25 26 25 24 22 19 17 16 16 16 16 17 17 16 17 18 20 22 23
3 2 1 3 4 2 5 7 5 1 3 7 6 4 4 3 2 2 4 3 5 9 9 10 13 9 6 4 6 5 4 7 8 10 11 13 14 13 12 12 11 10 8 7 8 9 8 7 6 6 6 7 8 10 11 13 15 15 16 17 19 20 20 21 23 24 24 25 25 24 23 22 19 16 15 15 14 14 14 15 15 15 16 18 20 21
4 3 2 2 1 3 6 5 4 3 3 6 5 4 4 3 3 3 4 4 7 9 4 5 9 12 8 4 3 4 4 5 8 11 14 16 16 15 12 12 12 10 9 9 8 9 9 8 7 7 7 7 8 9 11 13 16 17 18 20 22 22 22 22 23 24 25 25 25 25 23 20 17 15 15 15 14 13 13 13 12 13 14 15 17 19
5 7 6 4 1 4 6 4 3 2 3 5 5 6 5 4 4 5 5 6 7 5 2 2 3 8 10 8 6 3 6 6 6 9 14 17 17 16 14 13 12 10 10 10 8 8 9 10 9 9 9 9 8 9 10 14 18 19 20 22 24 23 22 23 23 24 25 25 25 25 22 19 17 18 17 15 14 12 11 11 11 11 12 13 15 17
3 6 8 6 2 7 11 8 5 4 6 9 8 8 7 6 6 7 6 6 6 2 2 2 2 4 6 8 10 6 5 5 4 5 12 17 17 16 15 13 11 11 10 9 9 8 9 11 11 10 10 10 9 10 13 16 18 20 21 22 24 24 23 24 24 25 25 25 24 24 22 21 20 19 16 14 14 13 12 12 12 12 12 13 14 16
6 4 8 11 5 10 15 11 8 7 8 10 9 8 8 7 6 7 5 5 4 1 2 2 3 5 4 1 1 2 5 5 4 3 7 14 15 14 13 12 11 11 10 9 9 9 11 13 12 12 12 11 11 12 15 16 18 20 22 23 25 25 24 25 25 25 25 24 24 24 22 21 20 19 17 17 17 16 16 15 14 12 11 11 13 14
9 5 8 8 4 13 16 9 6 7 7 7 6 8 9 6 5 4 1 1 1 1 2 5 4 4 3 3 4 4 4 5 4 3 8 12 14 13 12 12 11 11 10 9 9 10 12 14 13 13 12 12 12 13 16 18 20 22 24 24 26 26 26 26 26 25 25 25 24 23 22 21 20 20 19 19 18 18 17 16 15 14 13 12 13 14
6 3 6 5 2 10 9 4 6 5 3 6 6 8 4 1 3 2 1 2 1 6 4 6 5 5 2 3 6 7 5 6 6 6 9 13 15 14 12 12 12 11 11 10 10 11 13 15 14 13 13 13 14 15 18 21 23 24 26 27 27 26 27 26 26 26 25 25 24 23 22 21 21 21 20 19 18 18 17 16 15 15 14 13 12 13
5 2 3 5 4 4 2 1 3 1 1 5 6 6 4 3 2 2 4 2 3 8 5 6 9 7 6 4 5 7 7 8 8 8 10 12 14 14 12 12 13 12 11 11 11 12 14 16 15 14 14 13 15 17 20 22 23 25 26 27 28 28 28 27 26 26 26 25 24 23 22 21 20 20 18 18 17 16 15 15 14 13 12 11 11 11
5 4 2 3 3 4 2 2 4 1 1 0 2 4 4 3 5 5 5 5 6 8 5 6 10 8 8 6 5 9 11 10 11 10 12 14 15 14 13 14 15 13 12 11 12 12 13 16 16 16 15 15 16 18 21 23 24 24 24 25 27 28 28 27 27 26 26 25 24 23 22 20 19 18 17 16 15 14 13 13 12 11 10 9 9 9
5 5 3 0 1 5 5 5 8 7 4 1 2 4 3 2 4 5 5 4 5 7 6 6 6 6 8 8 10 13 13 12 13 12 13 15 16 15 14 15 15 14 13 12 12 12 14 17 18 17 17 17 18 19 21 24 24 23 23 24 25 26 27 27 27 26 26 25 24 23 21 19 18 17 16 14 13 12 11 10 9 9 8 8 8 8
4 5 4 1 2 5 5 7 11 11 9 7 6 8 6 3 1 2 5 5 4 6 6 7 6 3 3 5 9 13 12 13 14 14 13 13 15 15 15 15 15 14 14 13 13 12 15 18 18 18 18 18 19 19 21 24 24 22 23 24 25 26 27 27 26 26 26 24 23 22 20 18 17 15 14 12 11 10 9 8 7 7 7 7 7 7
5 6 6 4 4 7 5 4 5 4 6 9 9 10 10 8 5 4 6 6 4 4 4 5 8 3 3 1 1 4 6 9 13 13 11 12 15 15 15 16 16 15 14 14 13 13 15 18 18 19 19 18 18 18 19 22 22 22 24 25 25 27 28 27 27 26 25 24 23 21 19 17 16 14 12 10 9 8 7 7 6 6 6 6 6 6
2 3 7 5 4 5 2 3 2 2 2 5 7 8 8 8 8 8 7 4 4 3 1 3 7 3 2 3 4 4 4 2 7 11 10 11 13 14 14 15 15 14 13 13 13 13 15 18 19 19 19 18 19 19 20 22 21 22 25 26 27 29 28 28 27 26 26 25 22 21 19 17 15 13 11 9 8 7 6 5 5 5 5 5 5 6
3 1 6 5 2 2 3 3 2 2 2 6 7 6 7 10 10 7 3 1 4 5 3 3 8 4 2 3 3 3 3 3 1 6 9 9 10 12 13 14 14 12 12 12 11 12 15 18 18 19 19 19 20 20 20 20 20 22 25 28 29 28 28 28 28 27 27 25 23 21 18 16 14 13 11 9 7 6 5 4 4 4 4 4 4 5
5 4 6 5 5 4 4 4 4 4 5 7 8 8 8 10 8 2 1 0 5 7 8 7 9 3 3 1 2 1 1 1 1 3 7 8 9 10 11 11 12 11 11 12 11 11 14 16 17 18 19 20 20 20 20 20 21 22 25 28 29 27 27 28 28 28 27 25 23 21 18 16 15 13 12 10 8 7 6 4 3 3 2 3 4 5
5 4 7 8 10 10 8 6 6 6 6 5 9 12 13 13 10 5 2 6 8 6 8 10 9 2 4 1 2 2 3 4 4 4 5 5 7 9 10 10 11 10 11 13 13 12 12 14 16 18 19 19 20 20 21 21 21 22 22 25 27 26 26 27 27 28 27 24 22 20 17 17 17 14 13 11 9 8 6 5 3 2 1 2 4 5
2 4 10 13 13 9 4 2 0 6 9 9 12 15 15 16 15 8 5 9 7 3 8 13 9 5 3 5 6 5 6 6 5 6 5 5 6 8 9 10 10 9 10 11 11 11 12 13 15 18 19 19 20 20 20 21 22 22 21 23 27 27 25 26 28 28 25 22 21 19 18 19 18 16 14 11 10 9 7 5 4 2 0 2 4 5
2 6 12 15 16 9 2 2 1 4 9 13 15 17 16 15 16 13 13 12 5 4 12 11 8 10 10 9 8 8 7 6 6 7 7 6 7 7 8 9 10 9 9 10 11 12 14 13 14 18 19 20 21 21 21 21 22 23 22 23 27 27 25 27 29 28 25 22 20 20 20 21 19 17 15 13 12 10 8 7 4 2 1 2 4 5
3 7 10 12 16 14 4 2 2 2 3 6 11 16 17 17 19 19 20 17 9 9 16 8 10 14 12 9 11 10 8 8 7 5 4 5 6 7 8 9 11 11 11 12 13 14 14 13 13 17 20 21 22 22 22 21 22 23 22 22 26 27 26 29 30 27 25 23 21 21 23 23 21 19 16 15 13 12 10 8 5 3 2 3 4 5
3 6 5 6 12 15 9 4 2 1 1 3 6 11 14 18 20 19 19 18 13 15 17 6 5 10 7 7 11 7 4 4 3 3 3 5 7 8 9 10 11 11 12 13 14 13 13 12 13 17 19 21 23 24 23 23 23 24 23 24 28 29 28 30 30 27 25 23 22 23 25 24 22 20 18 17 15 13 11 8 6 4 3 3 4 5
3 4 3 4 6 11 8 5 3 2 2 3 7 10 11 11 13 14 15 13 12 17 17 10 8 9 4 4 4 3 4 3 4 3 3 4 6 8 9 9 10 11 12 12 12 11 11 11 12 16 20 23 26 27 25 24 24 25 26 27 31 33 32 32 31 28 26 24 24 26 27 25 23 21 20 19 17 14 12 9 7 6 5 4 4 5
5 3 3 3 7 9 6 7 6 3 1 5 13 16 12 7 7 9 11 12 13 16 15 12 12 9 4 5 2 2 3 4 4 4 4 4 6 8 9 10 10 11 12 12 12 11 12 12 13 18 22 25 28 29 27 26 26 27 30 31 32 33 33 32 31 28 26 25 27 28 28 26 25 23 22 20 18 15 12 10 9 8 6 5 5 6
6 5 3 5 7 4 2 6 7 5 2 7 14 13 13 12 10 9 10 12 13 11 9 11 12 6 3 5 4 3 4 5 5 6 5 5 6 8 9 9 9 10 10 10 11 11 12 13 16 21 24 26 28 30 30 30 31 33 34 34 32 33 33 32 30 28 27 28 30 30 28 27 27 26 24 21 19 16 13 12 11 9 7 6 6 8
5 6 4 5 4 2 1 5 7 5 5 7 6 4 13 19 18 15 14 14 12 10 9 10 7 1 4 7 8 7 7 7 6 6 5 5 6 7 8 9 8 9 8 8 9 9 10 14 17 19 22 24 26 28 30 32 35 34 33 32 31 32 34 33 30 29 30 31 31 30 29 29 29 28 25 22 20 17 15 14 12 10 9 8 8 9
6 6 4 3 2 2 3 6 6 6 6 2 4 3 4 10 15 15 15 15 14 13 13 12 9 5 5 6 6 6 7 6 4 3 3 4 6 7 8 8 8 8 8 7 8 8 10 14 16 16 18 22 25 27 29 31 31 28 29 31 32 33 34 34 32 31 32 32 31 31 31 31 31 29 26 23 21 19 17 15 14 12 11 10 10 10
6 5 3 2 2 3 3 6 6 3 2 2 2 3 4 3 4 7 10 13 14 13 12 13 14 11 6 5 3 2 2 2 1 2 4 5 5 6 6 7 7 7 7 7 8 10 12 15 18 18 19 22 25 28 29 29 28 28 30 32 34 34 35 35 34 33 33 33 33 33 34 33 32 30 28 25 23 20 19 17 16 14 13 12 12 11
4 4 3 3 3 3 3 6 3 6 5 3 3 4 5 4 5 8 7 10 10 10 10 11 12 11 6 5 4 4 4 2 2 4 6 6 5 5 4 3 4 5 5 6 7 9 12 14 17 19 21 22 24 27 29 28 28 29 31 31 33 34 34 35 35 35 35 35 36 36 36 34 33 31 30 27 24 22 21 19 18 16 14 13 12 12
1 2 3 4 3 3 3 4 2 5 7 3 4 5 5 2 5 7 4 5 5 7 10 11 11 11 6 5 5 5 5 3 5 5 6 7 6 6 3 3 4 4 5 7 7 7 10 12 15 18 20 21 22 24 27 27 27 28 30 31 32 33 33 34 36 37 38 39 39 39 37 35 34 33 31 29 26 24 22 21 19 17 15 13 13 13
0 0 1 3 3 4 4 5 5 6 5 1 4 4 2 2 5 7 1 5 4 5 7 10 10 8 7 7 5 6 5 5 6 4 4 6 7 6 5 4 5 5 5 6 7 8 10 12 14 15 17 19 20 21 23 26 26 28 30 31 31 32 33 35 38 40 41 42 42 40 37 36 35 35 32 30 28 25 23 22 20 17 15 14 14 14
2 2 3 5 6 7 7 5 5 5 2 2 5 5 3 2 5 7 1 4 3 2 2 6 6 5 7 7 6 6 6 6 5 1 2 4 5 5 6 6 6 6 6 6 7 8 10 12 14 15 16 18 19 20 22 24 25 27 30 31 31 33 36 39 41 42 43 43 41 40 38 37 37 36 33 31 28 25 23 22 21 18 16 15 14 14
2 3 4 6 7 9 10 7 5 4 2 4 6 6 5 3 3 5 4 1 3 4 2 4 6 6 7 7 6 5 4 2 1 1 3 4 4 4 5 7 7 7 6 7 8 9 11 12 14 15 17 17 18 19 21 23 25 27 29 30 32 35 38 41 42 42 42 41 40 40 39 38 37 36 34 31 28 25 24 23 21 19 17 15 15 14
4 3 3 5 6 7 8 7 5 4 1 6 6 3 3 3 3 3 2 2 3 5 4 4 6 6 6 7 6 4 2 3 3 2 3 3 4 4 6 7 8 8 7 8 10 10 11 12 12 14 15 17 18 19 21 23 26 28 28 29 33 36 38 39 40 39 40 40 40 40 39 39 38 36 34 32 29 27 25 24 22 20 17 16 15 14
5 5 4 5 5 3 4 6 5 4 1 8 9 3 1 2 2 2 3 2 2 3 5 4 4 5 6 7 6 4 4 4 3 2 3 3 3 5 5 6 6 7 9 10 12 12 13 13 13 14 15 17 19 19 21 24 26 26 27 29 32 34 35 36 37 37 38 38 39 39 39 38 37 36 34 32 29 27 26 24 23 20 18 16 16 14
4 5 3 4 5 5 5 6 3 1 4 8 7 3 3 2 2 3 5 3 0 2 4 3 3 5 7 6 5 5 5 4 3 2 2 2 3 4 4 5 6 8 10 11 13 15 15 14 14 14 15 16 18 19 21 24 25 26 27 28 29 30 32 34 35 34 36 37 37 38 38 37 36 35 34 32 30 27 26 25 22 20 18 17 15 14
3 3 1 1 4 4 2 2 1 2 5 5 1 2 2 3 2 1 3 4 2 2 3 3 3 5 5 4 4 4 4 4 4 3 2 2 3 3 4 5 7 9 10 11 12 15 17 16 14 14 14 15 17 19 21 24 25 27 28 27 27 30 32 33 33 34 35 36 37 37 37 36 35 34 33 32 30 28 26 25 22 20 19 17 16 15
1 0 1 0 2 1 1 3 3 1 4 5 2 3 2 3 2 1 2 2 2 3 3 3 2 3 5 5 4 4 4 5 5 3 3 3 3 4 4 5 7 8 10 11 12 14 16 15 13 13 13 15 17 19 21 24 26 28 28 27 28 30 31 32 33 34 35 36 36 36 36 35 34 34 32 31 29 27 26 24 22 20 19 17 16 15
1 2 1 2 3 3 1 4 4 2 3 4 2 1 1 2 1 1 1 2 2 2 1 0 2 3 4 5 5 5 5 5 5 5 4 3 4 4 5 6 8 10 13 15 16 16 16 15 15 15 16 18 20 21 22 25 28 29 29 28 27 29 30 31 32 33 34 34 34 34 34 34 34 33 32 31 29 27 26 25 23 21 20 19 17 16
3 5 4 5 6 4 1 3 3 2 1 0 0 1 1 1 2 2 0 1 2 2 1 2 3 3 3 4 5 4 3 5 6 5 4 4 4 4 5 7 10 13 15 17 17 17 16 16 18 19 19 21 23 23 25 27 29 30 31 30 28 27 27 30 31 32 32 32 31 32 33 33 33 32 31 30 29 28 27 26 24 23 22 20 18 17
3 5 4 5 5 2 2 2 2 2 1 1 3 4 3 2 3 2 1 1 1 1 1 1 1 2 2 3 4 3 3 4 4 5 5 4 4 4 7 10 13 16 18 19 19 19 19 19 20 21 22 24 24 24 26 28 30 31 32 32 31 28 27 29 29 30 29 29 30 31 31 31 31 30 29 29 29 29 27 26 24 23 22 20 19 18
4 5 4 4 4 3 3 6 6 3 1 3 6 7 6 4 4 3 2 2 3 3 3 2 2 2 2 2 3 4 4 4 4 5 5 4 5 7 10 13 15 17 18 19 18 19 20 21 21 22 23 25 25 24 26 29 30 31 32 33 33 31 30 29 28 27 28 28 29 30 30 30 30 30 29 28 28 27 26 24 23 22 22 21 19 18
6 6 5 5 3 2 4 8 7 3 2 3 5 7 5 5 5 5 5 5 4 4 4 4 4 3 3 4 5 6 6 5 5 6 6 5 7 9 12 14 16 17 19 19 19 19 21 22 22 21 23 25 25 25 26 29 30 31 31 32 33 32 30 29 27 27 28 29 30 30 30 29 29 30 29 28 26 25 24 23 22 22 22 21 19 18
Wind_Direction
194 213 213 225 230 226 220 219 233 257 291 296 284 277 270 267 269 269 132 117 143 252 254 257 258 262 260 223 175 168 177 195 202 196 198 200 193 198 194 184 179 161 105 84 75 60 57 54 58 66 65 73 79 72 78 98 102 99 101 104 101 95 94 93 90 92 93 91 90 85 81 82 83 85 87 87 87 86 85 85 83 81 79 79 79 79
192 223 227 231 239 246 236 226 235 252 259 264 267 266 262 255 264 266 138 127 142 243 262 264 263 258 263 254 179 161 182 197 204 201 202 198 184 191 187 178 170 136 115 119 110 91 87 78 78 84 81 82 80 76 83 96 103 105 108 109 107 109 110 107 105 107 103 96 95 92 87 86 84 84 86 86 86 87 87 86 84 82 80 79 78 79
212 230 235 237 237 188 208 231 234 245 250 255 253 254 259 255 265 258 151 138 162 240 269 271 270 263 264 254 178 173 196 190 191 191 187 187 182 186 183 173 164 145 139 139 127 119 118 106 100 98 91 88 84 85 91 96 102 106 111 115 116 118 121 121 119 117 112 108 107 104 99 97 93 89 89 88 89 89 89 87 86 85 83 82 81 80
223 236 235 224 183 172 206 214 222 242 244 241 238 244 252 246 260 257 171 140 183 231 279 292 282 270 267 245 173 177 193 158 148 158 155 178 183 180 172 167 165 158 150 144 138 136 135 128 118 107 97 96 91 88 97 102 100 101 106 110 113 116 120 123 124 122 117 114 111 106 102 99 95 91 90 89 87 87 86 85 85 84 83 82 81 80
238 254 201 192 187 212 223 209 210 232 239 231 228 233 251 248 248 257 256 74 236 233 241 269 281 271 255 235 197 158 162 165 166 173 177 186 184 167 156 160 162 156 152 149 145 144 144 138 123 112 105 100 96 99 110 110 99 97 104 107 109 110 112 115 117 118 116 113 110 106 102 98 93 88 84 82 79 79 81 82 82 81 81 80 79 77
241 160 127 179 186 210 220 217 207 217 247 243 224 222 242 259 262 267 281 317 284 260 196 214 272 279 244 228 200 149 173 194 180 187 191 184 181 177 172 171 163 150 147 147 144 143 141 134 124 113 107 101 98 109 119 117 110 108 111 113 115 114 113 114 113 113 112 110 108 108 107 103 98 89 80 79 79 77 78 81 82 81 80 78 76 75
226 138 158 181 183 200 214 232 212 203 242 259 236 213 231 258 267 266 269 257 273 285 145 183 260 277 276 227 168 148 194 195 183 198 195 181 180 179 176 172 165 159 152 143 139 140 134 130 128 115 104 102 101 113 122 122 121 121 121 122 123 123 122 120 117 114 113 115 116 114 107 101 101 96 90 89 89 87 85 83 83 82 80 78 76 74
156 163 181 184 198 209 215 237 211 192 230 256 28 107 214 246 258 252 251 240 259 291 213 192 236 272 277 241 150 160 195 193 195 206 195 184 181 177 173 167 164 163 157 150 143 141 133 125 123 115 104 100 103 117 125 125 125 128 129 130 130 129 128 126 123 120 122 124 121 116 107 100 99 100 100 98 94 93 90 86 82 80 79 77 75 73
148 181 189 188 204 217 218 238 189 187 222 248 82 76 140 238 262 248 242 243 256 279 252 205 191 250 267 219 150 173 201 209 206 198 193 188 180 176 173 166 162 157 154 154 147 138 131 120 113 113 110 105 113 126 131 132 132 133 134 134 133 130 128 128 127 125 126 125 121 116 111 106 102 102 103 100 97 93 90 87 83 80 77 74 73 71
76 190 206 202 212 219 190 57 95 196 217 145 120 101 91 109 235 220 237 251 248 253 254 222 187 224 271 231 169 177 214 226 205 186 187 183 178 177 173 166 162 156 152 151 144 137 132 125 118 120 120 120 128 132 132 133 133 134 134 135 133 129 127 128 128 128 126 124 121 117 114 112 108 107 106 101 97 93 90 87 84 81 77 74 72 69
99 85 318 225 225 201 110 70 33 20 131 141 146 125 123 159 157 194 231 242 255 252 245 225 204 214 270 256 193 183 207 215 185 169 177 176 175 177 173 169 164 159 156 152 145 139 132 128 132 137 134 133 134 131 128 127 129 129 131 135 134 130 130 129 130 130 127 125 123 119 116 114 112 111 108 104 100 95 92 88 84 82 78 75 73 70
168 173 180 159 110 112 113 96 51 46 126 161 172 167 171 184 171 211 218 198 248 256 232 213 207 209 232 252 191 137 131 179 172 167 173 174 175 175 173 171 165 161 160 155 150 146 145 146 153 157 148 140 136 131 127 127 129 129 131 134 133 132 133 133 133 132 129 127 124 122 118 114 112 111 109 106 103 100 96 92 89 86 80 76 74 71
207 208 179 127 147 185 165 141 101 98 189 195 187 181 196 210 198 219 214 202 236 246 111 95 183 214 236 249 240 174 127 152 165 169 173 171 173 173 172 169 163 160 160 159 159 156 158 164 167 168 158 150 144 135 132 132 133 133 134 136 135 134 136 136 135 133 131 129 127 125 122 117 117 115 112 107 104 102 99 97 95 91 86 79 74 70
205 208 182 165 189 199 192 182 170 172 186 194 190 183 197 211 223 231 220 221 235 217 91 103 165 234 254 253 242 213 125 112 104 144 170 169 170 171 168 163 157 157 162 163 163 162 167 171 172 170 163 158 152 145 143 141 139 137 138 139 138 137 138 138 136 135 134 132 131 130 126 123 122 118 113 109 108 108 106 104 100 93 89 83 76 71
217 244 184 179 171 176 193 210 207 174 174 195 197 197 209 214 231 239 226 237 240 140 127 156 172 217 216 175 207 119 94 92 78 98 158 163 164 162 158 156 154 158 165 165 165 168 172 173 171 170 167 163 159 154 150 146 143 142 143 145 143 141 141 142 141 141 139 136 135 133 129 126 125 121 118 116 116 115 111 106 101 95 93 86 75 66
228 258 164 160 142 164 184 215 204 166 170 193 198 210 222 233 249 260 281 277 351 1 204 187 220 246 195 116 106 112 117 129 117 125 154 160 160 156 157 160 160 164 168 167 169 172 173 172 172 171 170 166 162 159 156 152 150 148 148 148 147 146 147 147 146 144 142 141 139 137 134 131 130 127 126 124 120 114 107 101 97 94 89 83 71 60
223 262 135 134 132 169 184 200 176 177 174 171 192 207 206 336 297 259 222 104 78 277 243 175 220 259 224 192 152 145 156 148 145 159 163 163 162 161 165 166 167 171 171 171 173 173 172 172 174 174 172 169 166 163 161 158 156 154 154 153 151 150 150 150 150 149 147 145 142 140 138 136 134 131 128 123 116 109 103 97 92 87 82 76 66 57
216 262 155 170 177 159 355 352 166 311 44 152 193 189 121 34 321 266 251 225 217 256 250 182 214 225 209 213 151 154 177 170 168 171 168 168 168 171 173 170 172 173 170 171 173 174 174 174 175 175 174 171 169 167 165 163 160 159 158 158 157 155 154 155 154 153 151 147 145 143 143 140 136 132 125 118 111 105 101 96 90 84 78 71 61 54
206 237 197 175 176 129 79 204 188 223 243 200 245 169 139 222 224 200 228 249 232 244 258 217 217 219 214 206 156 178 194 181 173 172 175 178 177 179 178 172 173 172 170 174 176 176 176 177 177 175 173 172 171 171 169 166 164 162 161 161 160 159 159 160 159 156 153 151 151 150 148 144 137 131 123 115 110 106 101 96 91 83 75 69 60 54
194 226 224 36 69 133 148 202 198 189 186 316 284 198 183 250 229 203 211 238 239 244 261 239 215 217 219 201 178 187 193 178 171 175 185 186 182 183 179 175 175 176 176 178 178 179 177 177 178 175 173 171 172 173 172 171 168 164 163 162 162 163 164 164 162 159 158 158 158 156 152 147 139 132 124 117 113 108 101 94 90 82 74 71 62 53
181 216 225 123 104 159 180 205 204 194 184 186 202 200 193 187 224 269 236 228 244 253 256 256 255 238 192 191 190 189 185 174 171 177 186 187 185 185 181 179 179 179 179 178 178 178 174 174 174 173 173 172 172 173 173 174 171 166 166 166 167 169 168 167 165 163 164 165 164 161 156 150 143 135 129 123 116 109 102 96 92 84 74 68 58 49
186 203 208 175 175 203 206 196 206 210 193 194 200 200 198 192 184 224 229 211 219 254 255 267 275 266 106 57 191 165 167 170 172 175 178 183 185 186 185 184 182 179 179 178 175 171 169 170 170 171 173 172 172 172 173 175 173 169 170 170 172 174 172 171 170 169 171 171 168 165 161 154 148 142 136 130 121 113 109 104 96 83 70 61 51 43
137 197 212 200 189 199 158 82 64 347 278 247 235 218 209 202 196 210 223 191 179 226 307 305 280 279 79 30 34 53 47 101 162 169 170 180 184 185 188 186 183 181 176 171 167 163 165 169 170 172 172 171 173 174 174 175 174 174 175 176 177 177 176 175 175 175 176 175 172 171 167 161 156 151 144 138 133 129 124 113 99 82 71 59 43 33
75 158 207 208 185 142 116 113 102 49 284 257 248 229 218 216 209 214 244 149 185 205 176 228 254 253 66 20 27 46 34 35 153 175 167 172 178 183 187 184 182 179 167 160 159 158 164 169 171 173 172 173 176 177 175 174 174 177 178 180 181 179 179 180 179 180 180 178 177 176 172 169 165 160 156 154 153 149 141 129 113 91 72 55 35 24
169 178 188 203 223 210 186 188 194 192 204 224 225 216 218 220 209 191 50 280 238 213 183 219 250 224 107 10 358 71 149 143 212 193 175 172 174 177 181 181 180 170 156 156 158 160 167 170 174 176 175 177 178 176 175 175 175 178 181 184 183 181 182 184 183 184 183 181 181 179 177 177 174 171 170 169 168 164 160 152 134 102 71 47 26 15
179 184 176 193 217 217 211 216 210 186 177 207 217 208 208 207 199 189 184 224 239 207 178 218 244 197 106 179 242 215 204 203 192 188 192 185 175 172 173 178 178 167 161 164 164 166 171 173 177 178 177 178 178 175 175 175 177 179 181 184 185 182 184 186 186 186 185 183 183 181 181 184 184 182 181 180 179 178 178 174 158 122 76 35 14 8
167 211 197 205 220 216 202 253 196 131 154 193 205 199 201 202 201 203 215 225 225 184 209 225 230 238 205 189 217 217 201 211 198 180 193 195 181 176 173 175 176 170 167 167 166 169 173 177 181 181 178 177 176 175 176 177 180 181 180 183 187 186 186 188 189 188 186 183 183 183 186 190 191 190 188 187 189 189 189 188 182 166 78 11 4 0
168 222 212 216 232 234 131 53 357 150 182 202 200 197 201 202 201 205 218 220 170 166 240 225 187 228 228 185 201 213 194 210 211 190 195 194 185 178 169 171 176 172 165 164 171 177 179 182 181 179 178 176 175 176 177 179 181 183 182 183 187 188 188 190 191 189 187 184 183 187 191 195 196 195 193 194 196 197 199 198 195 196 270 346 350 350
180 228 218 213 234 241 208 116 263 234 221 219 204 201 200 198 200 205 217 221 191 210 247 227 171 218 227 185 196 201 189 205 206 186 173 155 162 166 163 173 181 179 174 175 182 186 183 182 179 178 179 177 175 176 178 180 183 184 183 183 188 190 191 193 192 189 188 187 187 191 196 199 200 198 198 199 201 203 205 204 204 214 266 317 335 339
195 231 212 196 233 241 227 200 194 187 270 269 232 217 206 203 206 209 217 223 218 233 249 249 205 235 237 194 197 185 168 185 141 107 117 135 155 163 168 181 186 187 188 188 190 189 184 182 178 177 177 177 178 179 179 181 183 183 182 184 191 193 194 195 192 188 190 190 190 195 200 203 203 201 201 202 205 208 209 209 212 228 259 292 316 327
210 218 151 134 232 240 221 190 176 190 223 273 264 245 225 207 202 210 222 223 226 241 248 253 263 259 231 180 174 105 84 97 103 132 161 158 164 167 177 189 190 195 199 196 193 188 183 182 175 175 181 184 185 183 182 182 182 184 185 189 194 197 196 196 192 190 191 190 193 200 203 205 206 205 204 205 208 211 211 213 221 233 251 278 303 314
197 208 98 137 222 235 207 184 190 176 80 273 260 244 220 191 178 200 220 216 215 231 240 244 253 247 180 136 99 66 119 152 176 186 173 170 174 176 189 195 195 201 202 197 194 188 185 184 180 185 191 191 188 186 185 184 183 186 191 194 197 198 197 195 192 192 193 193 198 204 205 207 208 207 207 208 210 213 213 219 227 234 247 268 288 296
185 187 154 178 209 234 203 177 170 133 117 252 251 225 193 194 202 207 220 221 216 221 227 233 242 244 142 148 174 192 184 188 205 202 188 187 183 186 200 200 200 205 201 196 194 189 190 192 193 197 198 193 190 188 187 187 189 194 197 197 198 198 195 193 192 194 195 198 203 206 207 210 211 209 209 210 211 214 216 223 230 235 244 259 273 280
176 187 189 189 197 213 153 136 138 159 207 242 264 193 182 196 203 207 220 222 211 208 221 237 248 225 144 177 188 193 199 202 210 210 200 184 179 193 205 205 205 204 198 195 192 189 194 196 197 200 198 195 192 189 190 194 198 200 200 198 197 196 194 193 194 196 199 202 206 208 210 213 212 210 210 211 213 216 219 225 231 234 240 252 261 267
164 180 189 184 170 143 128 136 159 208 226 240 351 359 185 194 196 204 222 226 214 212 221 233 240 215 181 188 190 190 195 192 198 214 196 177 186 194 197 201 203 196 188 186 185 187 191 189 187 186 187 190 192 192 194 198 199 199 198 197 197 197 196 196 197 199 202 204 207 210 213 214 212 210 211 213 214 217 221 226 230 233 238 247 254 262
162 175 170 164 160 124 145 183 197 258 277 128 62 12 40 69 157 191 229 238 224 216 216 224 237 235 207 181 166 129 126 130 145 243 208 195 200 194 192 198 194 187 186 184 188 192 191 189 188 188 188 190 192 195 195 195 196 197 197 198 199 198 198 198 199 201 204 206 209 213 215 214 211 211 213 214 216 218 222 227 230 231 236 244 252 261
164 176 165 181 184 141 178 211 249 325 294 197 142 174 175 147 154 176 223 244 221 206 208 218 234 236 209 155 130 100 96 120 242 239 204 192 198 198 196 181 157 165 174 174 182 191 192 193 195 196 194 190 189 193 192 191 195 197 197 197 198 199 199 199 200 203 205 209 213 216 216 214 212 214 215 215 217 220 223 227 229 231 236 243 253 263
167 187 179 193 193 154 182 216 241 281 261 218 117 154 172 145 147 160 208 254 208 185 196 206 224 227 193 130 123 128 128 178 242 234 192 179 181 183 173 102 103 127 146 153 156 160 173 185 188 188 189 186 186 190 190 191 195 196 196 197 197 198 198 199 203 207 209 213 216 217 216 215 215 217 217 217 219 222 225 227 228 231 237 244 254 262
49 350 188 199 198 180 194 217 219 232 246 142 100 115 99 76 119 119 101 270 214 172 184 194 213 217 170 139 143 146 153 209 238 237 183 171 172 169 159 134 115 114 125 145 155 159 169 178 178 178 182 183 185 188 191 194 196 194 194 197 197 197 198 202 208 212 213 216 217 218 218 217 218 219 219 220 222 223 225 228 229 231 238 244 252 261
186 201 204 211 212 204 205 221 234 244 253 132 135 134 125 125 126 127 191 264 207 173 180 176 183 176 146 141 147 159 186 217 232 270 78 124 141 147 148 144 138 131 127 137 154 165 170 172 172 174 179 182 185 190 195 197 195 193 195 198 197 198 203 210 215 216 216 217 218 219 219 219 220 220 220 222 223 223 225 228 229 232 237 242 250 258
192 202 205 214 221 216 216 225 246 254 206 146 150 149 146 137 139 175 211 235 148 179 177 141 151 150 145 150 164 187 204 196 131 91 89 105 124 137 126 114 120 133 144 156 162 165 167 172 177 181 185 188 191 196 199 196 192 194 198 198 199 205 213 218 219 217 217 217 219 220 220 220 221 221 221 222 223 223 226 227 229 233 236 241 248 255
175 179 204 217 221 222 223 232 250 262 186 123 124 125 153 163 176 193 184 58 119 168 165 155 162 157 157 171 186 189 149 103 106 129 128 121 126 132 120 109 114 124 140 160 169 170 169 172 179 185 190 194 197 200 200 195 193 197 198 198 205 214 221 221 219 218 217 217 219 220 220 221 222 221 221 221 221 223 225 227 230 233 235 239 247 254
171 168 196 209 203 204 222 222 234 264 159 128 121 105 243 208 167 133 116 58 49 132 147 163 172 166 174 192 196 168 116 115 128 103 95 94 88 105 124 135 141 144 149 161 173 176 173 173 179 185 191 195 198 202 200 196 197 198 199 204 215 222 224 222 220 219 217 217 219 220 221 221 221 220 219 220 221 223 225 227 230 233 234 238 246 253
184 182 200 206 190 185 207 216 212 136 168 161 144 146 186 168 104 120 134 127 78 151 158 174 191 187 189 196 188 153 123 137 157 116 110 121 94 102 129 147 156 161 162 169 179 182 182 182 182 185 191 197 202 203 201 201 201 200 203 215 225 226 223 221 220 218 217 218 220 221 221 221 221 220 219 220 221 222 224 227 230 231 234 239 244 252
211 194 215 210 191 187 194 192 71 78 161 169 83 29 118 107 65 72 114 121 160 186 174 187 199 189 182 169 148 141 145 165 165 143 146 154 141 152 168 168 171 174 172 176 184 188 191 193 191 189 193 202 208 208 206 208 206 204 212 226 230 225 222 221 219 218 219 220 221 221 222 221 219 219 219 220 221 222 223 227 229 230 235 240 244 251
300 52 335 346 180 206 50 111 107 110 163 152 77 28 60 71 54 39 70 107 157 161 170 196 198 161 158 151 142 156 178 173 161 163 170 160 163 177 178 175 178 180 179 183 191 198 200 201 202 202 204 212 218 217 215 215 213 215 226 234 231 225 224 222 219 219 220 221 221 222 221 219 218 218 219 219 221 221 224 228 229 230 235 240 244 249
192 157 204 219 200 214 197 124 107 100 161 154 119 70 53 57 83 95 59 59 72 96 156 163 56 97 138 156 168 184 184 165 164 177 176 171 184 186 181 185 188 190 196 200 203 206 205 203 206 211 214 221 226 227 225 224 223 227 233 235 231 229 227 224 222 222 221 221 220 220 219 218 218 218 217 218 220 221 224 227 229 230 233 237 243 247
174 148 171 219 218 204 134 92 70 45 8 227 216 234 216 157 144 147 126 62 48 39 60 71 75 104 139 169 188 197 180 160 168 179 179 184 195 188 189 198 198 201 208 210 209 209 207 207 211 215 220 227 232 235 235 234 235 236 235 233 232 232 229 226 225 224 223 221 219 219 219 218 217 218 218 219 220 222 224 227 229 232 236 240 245 249
132 149 170 197 199 170 101 116 108 65 13 227 218 236 241 189 152 154 162 147 90 52 84 95 159 166 165 178 185 186 190 183 180 184 186 189 191 193 205 210 209 211 212 211 210 211 211 214 218 221 226 234 239 240 241 242 244 243 239 235 234 233 230 229 227 225 224 222 220 219 220 218 218 218 219 221 223 224 227 231 235 239 243 247 250 252
152 180 168 151 177 202 180 165 159 144 153 190 205 219 216 169 152 171 184 189 208 201 183 197 213 181 176 195 181 179 201 214 202 193 193 196 198 207 217 220 220 222 220 214 212 216 219 222 225 227 231 239 243 243 244 247 248 246 242 238 235 233 231 229 226 223 223 222 221 221 220 219 218 218 218 221 225 226 229 234 239 243 247 251 253 253
190 199 171 155 188 194 144 155 168 173 149 156 191 211 198 152 153 189 209 210 209 198 190 203 210 194 192 208 205 201 212 221 210 203 206 210 210 215 225 229 228 229 227 220 215 218 223 226 227 230 236 243 246 245 247 249 250 248 244 240 237 234 231 228 225 222 222 222 222 222 221 219 219 218 218 221 225 227 229 234 240 244 248 252 255 254